Year,Month,Day,Hour,Minute,Value (Times are PST for windspeed in km/hr)
2012,03,12,00,00,25.70
2012,03,12,00,01,28.80
2012,03,12,00,02,29.80
2012,03,12,00,03,25.90
2012,03,12,00,04,27.60
2012,03,12,00,05,28.50
2012,03,12,00,06,19.80
2012,03,12,00,07,30.10
2012,03,12,00,08,35.50
2012,03,12,00,09,29.60
2012,03,12,00,10,34.30
2012,03,12,00,11,33.10
2012,03,12,00,12,33.90
2012,03,12,00,13,29.80
2012,03,12,00,14,28.20
2012,03,12,00,15,23.40
2012,03,12,00,16,31.70
2012,03,12,00,17,30.90
2012,03,12,00,18,26.20
2012,03,12,00,19,27.10
2012,03,12,00,20,21.80
2012,03,12,00,21,37.10
2012,03,12,00,22,34.20
2012,03,12,00,23,19.20
2012,03,12,00,24,30.70
2012,03,12,00,25,27.40
2012,03,12,00,26,24.00
2012,03,12,00,27,25.50
2012,03,12,00,28,22.00
2012,03,12,00,29,22.50
2012,03,12,00,30,27.20
2012,03,12,00,31,26.20
2012,03,12,00,32,32.50
2012,03,12,00,33,30.10
2012,03,12,00,34,26.00
2012,03,12,00,35,26.70
2012,03,12,00,36,26.00
2012,03,12,00,37,30.90
2012,03,12,00,38,34.50
2012,03,12,00,39,22.10
2012,03,12,00,40,24.40
2012,03,12,00,41,28.70
2012,03,12,00,42,35.20
2012,03,12,00,43,35.00
2012,03,12,00,44,34.80
2012,03,12,00,45,19.70
2012,03,12,00,46,26.80
2012,03,12,00,47,20.90
2012,03,12,00,48,21.10
2012,03,12,00,49,31.70
2012,03,12,00,50,28.40
2012,03,12,00,51,28.70
2012,03,12,00,52,30.40
2012,03,12,00,53,24.30
2012,03,12,00,54,21.80
2012,03,12,00,55,24.10
2012,03,12,00,56,18.00
2012,03,12,00,57,15.70
2012,03,12,00,58,28.60
2012,03,12,00,59,23.20
2012,03,12,01,00,22.40
2012,03,12,01,01,28.80
2012,03,12,01,02,24.90
2012,03,12,01,03,23.00
2012,03,12,01,04,22.90
2012,03,12,01,05,23.90
2012,03,12,01,06,29.00
2012,03,12,01,07,30.20
2012,03,12,01,08,25.40
2012,03,12,01,09,33.60
2012,03,12,01,10,30.70
2012,03,12,01,11,19.00
2012,03,12,01,12,27.90
2012,03,12,01,13,31.60
2012,03,12,01,14,33.70
2012,03,12,01,15,29.00
2012,03,12,01,16,23.70
2012,03,12,01,17,35.40
2012,03,12,01,18,30.80
2012,03,12,01,19,22.70
2012,03,12,01,20,27.40
2012,03,12,01,21,25.70
2012,03,12,01,22,30.90
2012,03,12,01,23,24.80
2012,03,12,01,24,36.00
2012,03,12,01,25,33.20
2012,03,12,01,26,33.70
2012,03,12,01,27,32.70
2012,03,12,01,28,30.10
2012,03,12,01,29,31.10
2012,03,12,01,30,26.20
2012,03,12,01,31,31.20
2012,03,12,01,32,29.90
2012,03,12,01,33,24.30
2012,03,12,01,34,17.60
2012,03,12,01,35,22.00
2012,03,12,01,36,37.40
2012,03,12,01,37,35.60
2012,03,12,01,38,24.70
2012,03,12,01,39,30.90
2012,03,12,01,40,29.80
2012,03,12,01,41,26.40
2012,03,12,01,42,29.30
2012,03,12,01,43,38.70
2012,03,12,01,44,20.40
2012,03,12,01,45,29.90
2012,03,12,01,46,40.40
2012,03,12,01,47,35.60
2012,03,12,01,48,35.80
2012,03,12,01,49,35.40
2012,03,12,01,50,36.40
2012,03,12,01,51,34.40
2012,03,12,01,52,34.90
2012,03,12,01,53,29.90
2012,03,12,01,54,42.60
2012,03,12,01,55,26.70
2012,03,12,01,56,31.60
2012,03,12,01,57,28.40
2012,03,12,01,58,44.60
2012,03,12,01,59,33.00
2012,03,12,02,00,26.90
2012,03,12,02,01,28.40
2012,03,12,02,02,29.60
2012,03,12,02,03,29.50
2012,03,12,02,04,31.50
2012,03,12,02,05,32.30
2012,03,12,02,06,24.80
2012,03,12,02,07,28.20
2012,03,12,02,08,22.80
2012,03,12,02,09,36.00
2012,03,12,02,10,38.70
2012,03,12,02,11,35.20
2012,03,12,02,12,37.20
2012,03,12,02,13,33.00
2012,03,12,02,14,30.00
2012,03,12,02,15,24.10
2012,03,12,02,16,32.30
2012,03,12,02,17,30.10
2012,03,12,02,18,26.60
2012,03,12,02,19,31.40
2012,03,12,02,20,33.60
2012,03,12,02,21,42.70
2012,03,12,02,22,32.70
2012,03,12,02,23,28.60
2012,03,12,02,24,29.80
2012,03,12,02,25,26.70
2012,03,12,02,26,37.20
2012,03,12,02,27,33.70
2012,03,12,02,28,31.10
2012,03,12,02,29,35.20
2012,03,12,02,30,33.60
2012,03,12,02,31,36.70
2012,03,12,02,32,40.90
2012,03,12,02,33,35.30
2012,03,12,02,34,35.00
2012,03,12,02,35,34.60
2012,03,12,02,36,33.40
2012,03,12,02,37,37.90
2012,03,12,02,38,39.10
2012,03,12,02,39,33.20
2012,03,12,02,40,31.40
2012,03,12,02,41,30.20
2012,03,12,02,42,37.70
2012,03,12,02,43,42.80
2012,03,12,02,44,36.80
2012,03,12,02,45,34.80
2012,03,12,02,46,39.30
2012,03,12,02,47,39.20
2012,03,12,02,48,36.30
2012,03,12,02,49,30.50
2012,03,12,02,50,33.30
2012,03,12,02,51,30.40
2012,03,12,02,52,34.20
2012,03,12,02,53,36.10
2012,03,12,02,54,31.00
2012,03,12,02,55,35.20
2012,03,12,02,56,28.60
2012,03,12,02,57,29.20
2012,03,12,02,58,45.40
2012,03,12,02,59,34.90
2012,03,12,03,00,26.20
2012,03,12,03,01,28.10
2012,03,12,03,02,39.40
2012,03,12,03,03,38.80
2012,03,12,03,04,30.70
2012,03,12,03,05,32.30
2012,03,12,03,06,36.10
2012,03,12,03,07,31.10
2012,03,12,03,08,32.30
2012,03,12,03,09,38.90
2012,03,12,03,10,44.60
2012,03,12,03,11,45.90
2012,03,12,03,12,43.50
2012,03,12,03,13,38.10
2012,03,12,03,14,34.60
2012,03,12,03,15,36.30
2012,03,12,03,16,37.80
2012,03,12,03,17,40.70
2012,03,12,03,18,34.30
2012,03,12,03,19,30.00
2012,03,12,03,20,34.60
2012,03,12,03,21,35.00
2012,03,12,03,22,40.40
2012,03,12,03,23,41.80
2012,03,12,03,24,42.20
2012,03,12,03,25,39.50
2012,03,12,03,26,36.90
2012,03,12,03,27,30.90
2012,03,12,03,28,36.90
2012,03,12,03,29,40.30
2012,03,12,03,30,34.70
2012,03,12,03,31,36.40
2012,03,12,03,32,39.20
2012,03,12,03,33,37.60
2012,03,12,03,34,38.60
2012,03,12,03,35,41.60
2012,03,12,03,36,41.00
2012,03,12,03,37,45.20
2012,03,12,03,38,35.80
2012,03,12,03,39,46.90
2012,03,12,03,40,36.90
2012,03,12,03,41,43.10
2012,03,12,03,42,42.70
2012,03,12,03,43,40.40
2012,03,12,03,44,41.90
2012,03,12,03,45,46.50
2012,03,12,03,46,36.80
2012,03,12,03,47,39.50
2012,03,12,03,48,39.80
2012,03,12,03,49,33.10
2012,03,12,03,50,39.50
2012,03,12,03,51,52.20
2012,03,12,03,52,44.90
2012,03,12,03,53,29.80
2012,03,12,03,54,33.20
2012,03,12,03,55,43.20
2012,03,12,03,56,45.30
2012,03,12,03,57,46.90
2012,03,12,03,58,37.80
2012,03,12,03,59,36.70
2012,03,12,04,00,40.00
2012,03,12,04,01,40.50
2012,03,12,04,02,42.20
2012,03,12,04,03,33.70
2012,03,12,04,04,43.60
2012,03,12,04,05,35.50
2012,03,12,04,06,40.20
2012,03,12,04,07,41.40
2012,03,12,04,08,41.80
2012,03,12,04,09,48.50
2012,03,12,04,10,43.50
2012,03,12,04,11,40.60
2012,03,12,04,12,47.50
2012,03,12,04,13,40.40
2012,03,12,04,14,41.80
2012,03,12,04,15,43.60
2012,03,12,04,16,43.90
2012,03,12,04,17,38.00
2012,03,12,04,18,41.80
2012,03,12,04,19,42.50
2012,03,12,04,20,38.90
2012,03,12,04,21,35.60
2012,03,12,04,22,37.40
2012,03,12,04,23,38.20
2012,03,12,04,24,38.00
2012,03,12,04,25,36.90
2012,03,12,04,26,45.90
2012,03,12,04,27,50.00
2012,03,12,04,28,44.10
2012,03,12,04,29,40.70
2012,03,12,04,30,36.90
2012,03,12,04,31,32.80
2012,03,12,04,32,43.20
2012,03,12,04,33,43.90
2012,03,12,04,34,44.10
2012,03,12,04,35,39.70
2012,03,12,04,36,39.20
2012,03,12,04,37,25.50
2012,03,12,04,38,32.70
2012,03,12,04,39,42.50
2012,03,12,04,40,34.10
2012,03,12,04,41,37.20
2012,03,12,04,42,28.80
2012,03,12,04,43,40.20
2012,03,12,04,44,40.50
2012,03,12,04,45,41.60
2012,03,12,04,46,50.30
2012,03,12,04,47,43.50
2012,03,12,04,48,49.00
2012,03,12,04,49,40.30
2012,03,12,04,50,37.50
2012,03,12,04,51,33.60
2012,03,12,04,52,47.50
2012,03,12,04,53,44.30
2012,03,12,04,54,38.10
2012,03,12,04,55,41.30
2012,03,12,04,56,40.50
2012,03,12,04,57,40.30
2012,03,12,04,58,42.20
2012,03,12,04,59,41.90
2012,03,12,05,00,48.10
2012,03,12,05,01,39.00
2012,03,12,05,02,25.10
2012,03,12,05,03,38.30
2012,03,12,05,04,44.40
2012,03,12,05,05,47.90
2012,03,12,05,06,50.50
2012,03,12,05,07,42.20
2012,03,12,05,08,39.20
2012,03,12,05,09,33.50
2012,03,12,05,10,38.20
2012,03,12,05,11,43.20
2012,03,12,05,12,45.50
2012,03,12,05,13,46.10
2012,03,12,05,14,41.40
2012,03,12,05,15,37.70
2012,03,12,05,16,59.10
2012,03,12,05,17,44.90
2012,03,12,05,18,48.00
2012,03,12,05,19,44.00
2012,03,12,05,20,48.70
2012,03,12,05,21,39.40
2012,03,12,05,22,37.80
2012,03,12,05,23,44.40
2012,03,12,05,24,34.20
2012,03,12,05,25,37.10
2012,03,12,05,26,50.50
2012,03,12,05,27,36.10
2012,03,12,05,28,36.70
2012,03,12,05,29,51.60
2012,03,12,05,30,52.20
2012,03,12,05,31,52.80
2012,03,12,05,32,51.40
2012,03,12,05,33,36.10
2012,03,12,05,34,39.60
2012,03,12,05,35,46.00
2012,03,12,05,36,49.80
2012,03,12,05,37,53.50
2012,03,12,05,38,46.20
2012,03,12,05,39,53.30
2012,03,12,05,40,48.00
2012,03,12,05,41,55.60
2012,03,12,05,42,52.90
2012,03,12,05,43,43.80
2012,03,12,05,44,57.60
2012,03,12,05,45,39.10
2012,03,12,05,46,43.00
2012,03,12,05,47,46.30
2012,03,12,05,48,39.30
2012,03,12,05,49,39.40
2012,03,12,05,50,41.40
2012,03,12,05,51,43.80
2012,03,12,05,52,51.70
2012,03,12,05,53,51.40
2012,03,12,05,54,46.50
2012,03,12,05,55,44.50
2012,03,12,05,56,32.60
2012,03,12,05,57,41.30
2012,03,12,05,58,42.20
2012,03,12,05,59,45.90
2012,03,12,06,00,37.70
2012,03,12,06,01,41.80
2012,03,12,06,02,44.30
2012,03,12,06,03,46.40
2012,03,12,06,04,44.40
2012,03,12,06,05,55.20
2012,03,12,06,06,47.50
2012,03,12,06,07,37.20
2012,03,12,06,08,43.20
2012,03,12,06,09,33.80
2012,03,12,06,10,42.20
2012,03,12,06,11,49.50
2012,03,12,06,12,36.90
2012,03,12,06,13,43.00
2012,03,12,06,14,57.10
2012,03,12,06,15,49.20
2012,03,12,06,16,34.80
2012,03,12,06,17,48.40
2012,03,12,06,18,53.70
2012,03,12,06,19,43.50
2012,03,12,06,20,44.20
2012,03,12,06,21,42.90
2012,03,12,06,22,47.50
2012,03,12,06,23,51.60
2012,03,12,06,24,41.40
2012,03,12,06,25,40.80
2012,03,12,06,26,51.30
2012,03,12,06,27,51.70
2012,03,12,06,28,47.30
2012,03,12,06,29,52.70
2012,03,12,06,30,41.40
2012,03,12,06,31,32.60
2012,03,12,06,32,36.10
2012,03,12,06,33,40.00
2012,03,12,06,34,41.00
2012,03,12,06,35,53.50
2012,03,12,06,36,43.20
2012,03,12,06,37,51.50
2012,03,12,06,38,47.00
2012,03,12,06,39,32.80
2012,03,12,06,40,42.20
2012,03,12,06,41,34.80
2012,03,12,06,42,50.80
2012,03,12,06,43,40.00
2012,03,12,06,44,50.70
2012,03,12,06,45,41.60
2012,03,12,06,46,46.20
2012,03,12,06,47,49.70
2012,03,12,06,48,51.00
2012,03,12,06,49,51.00
2012,03,12,06,50,47.40
2012,03,12,06,51,29.00
2012,03,12,06,52,41.30
2012,03,12,06,53,45.70
2012,03,12,06,54,46.70
2012,03,12,06,55,49.30
2012,03,12,06,56,43.00
2012,03,12,06,57,45.50
2012,03,12,06,58,40.60
2012,03,12,06,59,40.90
2012,03,12,07,00,41.80
2012,03,12,07,01,40.10
2012,03,12,07,02,41.60
2012,03,12,07,03,62.20
2012,03,12,07,04,48.60
2012,03,12,07,05,41.80
2012,03,12,07,06,44.40
2012,03,12,07,07,39.10
2012,03,12,07,08,45.40
2012,03,12,07,09,58.40
2012,03,12,07,10,53.90
2012,03,12,07,11,48.70
2012,03,12,07,12,48.10
2012,03,12,07,13,46.10
2012,03,12,07,14,47.60
2012,03,12,07,15,43.50
2012,03,12,07,16,42.50
2012,03,12,07,17,39.60
2012,03,12,07,18,36.20
2012,03,12,07,19,44.30
2012,03,12,07,20,45.10
2012,03,12,07,21,43.60
2012,03,12,07,22,44.20
2012,03,12,07,23,38.50
2012,03,12,07,24,37.40
2012,03,12,07,25,47.70
2012,03,12,07,26,44.00
2012,03,12,07,27,42.90
2012,03,12,07,28,45.60
2012,03,12,07,29,64.30
2012,03,12,07,30,55.70
2012,03,12,07,31,51.60
2012,03,12,07,32,49.30
2012,03,12,07,33,52.00
2012,03,12,07,34,45.50
2012,03,12,07,35,46.40
2012,03,12,07,36,42.00
2012,03,12,07,37,41.00
2012,03,12,07,38,39.00
2012,03,12,07,39,48.70
2012,03,12,07,40,53.90
2012,03,12,07,41,47.50
2012,03,12,07,42,40.70
2012,03,12,07,43,49.40
2012,03,12,07,44,61.80
2012,03,12,07,45,49.50
2012,03,12,07,46,45.10
2012,03,12,07,47,47.00
2012,03,12,07,48,41.50
2012,03,12,07,49,46.10
2012,03,12,07,50,45.10
2012,03,12,07,51,50.30
2012,03,12,07,52,48.90
2012,03,12,07,53,46.50
2012,03,12,07,54,40.50
2012,03,12,07,55,41.80
2012,03,12,07,56,38.30
2012,03,12,07,57,42.00
2012,03,12,07,58,38.60
2012,03,12,07,59,49.00
2012,03,12,08,00,48.70
2012,03,12,08,01,48.50
2012,03,12,08,02,59.00
2012,03,12,08,03,39.70
2012,03,12,08,04,55.60
2012,03,12,08,05,49.50
2012,03,12,08,06,51.30
2012,03,12,08,07,45.40
2012,03,12,08,08,49.10
2012,03,12,08,09,60.40
2012,03,12,08,10,37.20
2012,03,12,08,11,43.50
2012,03,12,08,12,39.70
2012,03,12,08,13,53.80
2012,03,12,08,14,42.30
2012,03,12,08,15,51.70
2012,03,12,08,16,49.70
2012,03,12,08,17,48.70
2012,03,12,08,18,38.60
2012,03,12,08,19,43.90
2012,03,12,08,20,39.50
2012,03,12,08,21,47.80
2012,03,12,08,22,48.30
2012,03,12,08,23,51.60
2012,03,12,08,24,54.60
2012,03,12,08,25,45.40
2012,03,12,08,26,53.20
2012,03,12,08,27,43.20
2012,03,12,08,28,43.00
2012,03,12,08,29,38.30
2012,03,12,08,30,54.50
2012,03,12,08,31,50.40
2012,03,12,08,32,40.50
2012,03,12,08,33,51.60
2012,03,12,08,34,62.40
2012,03,12,08,35,50.10
2012,03,12,08,36,48.80
2012,03,12,08,37,57.30
2012,03,12,08,38,45.90
2012,03,12,08,39,50.20
2012,03,12,08,40,52.70
2012,03,12,08,41,47.40
2012,03,12,08,42,50.00
2012,03,12,08,43,51.60
2012,03,12,08,44,46.00
2012,03,12,08,45,45.20
2012,03,12,08,46,37.90
2012,03,12,08,47,51.90
2012,03,12,08,48,53.90
2012,03,12,08,49,51.60
2012,03,12,08,50,42.60
2012,03,12,08,51,54.90
2012,03,12,08,52,43.80
2012,03,12,08,53,48.50
2012,03,12,08,54,54.30
2012,03,12,08,55,56.60
2012,03,12,08,56,44.10
2012,03,12,08,57,56.20
2012,03,12,08,58,54.00
2012,03,12,08,59,40.50
2012,03,12,09,00,47.20
2012,03,12,09,01,41.50
2012,03,12,09,02,49.70
2012,03,12,09,03,39.20
2012,03,12,09,04,41.00
2012,03,12,09,05,44.60
2012,03,12,09,06,56.80
2012,03,12,09,07,48.40
2012,03,12,09,08,45.80
2012,03,12,09,09,52.20
2012,03,12,09,10,50.70
2012,03,12,09,11,41.90
2012,03,12,09,12,46.30
2012,03,12,09,13,59.60
2012,03,12,09,14,45.10
2012,03,12,09,15,44.30
2012,03,12,09,16,47.40
2012,03,12,09,17,57.90
2012,03,12,09,18,52.00
2012,03,12,09,19,38.30
2012,03,12,09,20,44.30
2012,03,12,09,21,44.40
2012,03,12,09,22,32.60
2012,03,12,09,23,47.10
2012,03,12,09,24,54.70
2012,03,12,09,25,46.10
2012,03,12,09,26,50.70
2012,03,12,09,27,47.00
2012,03,12,09,28,51.30
2012,03,12,09,29,56.30
2012,03,12,09,30,55.50
2012,03,12,09,31,53.00
2012,03,12,09,32,59.20
2012,03,12,09,33,47.80
2012,03,12,09,34,47.80
2012,03,12,09,35,45.80
2012,03,12,09,36,51.60
2012,03,12,09,37,51.80
2012,03,12,09,38,50.90
2012,03,12,09,39,51.10
2012,03,12,09,40,54.20
2012,03,12,09,41,53.90
2012,03,12,09,42,41.60
2012,03,12,09,43,39.90
2012,03,12,09,44,49.50
2012,03,12,09,45,47.70
2012,03,12,09,46,37.90
2012,03,12,09,47,43.80
2012,03,12,09,48,43.30
2012,03,12,09,49,31.90
2012,03,12,09,50,46.20
2012,03,12,09,51,47.10
2012,03,12,09,52,46.20
2012,03,12,09,53,37.40
2012,03,12,09,54,45.90
2012,03,12,09,55,39.60
2012,03,12,09,56,46.90
2012,03,12,09,57,49.20
2012,03,12,09,58,43.80
2012,03,12,09,59,46.70
2012,03,12,10,00,47.30
2012,03,12,10,01,44.40
2012,03,12,10,02,34.40
2012,03,12,10,03,42.60
2012,03,12,10,04,29.50
2012,03,12,10,05,38.60
2012,03,12,10,06,45.40
2012,03,12,10,07,40.70
2012,03,12,10,08,37.60
2012,03,12,10,09,38.10
2012,03,12,10,10,31.20
2012,03,12,10,11,25.50
2012,03,12,10,12,41.10
2012,03,12,10,13,50.20
2012,03,12,10,14,37.70
2012,03,12,10,15,45.60
2012,03,12,10,16,39.70
2012,03,12,10,17,41.80
2012,03,12,10,18,35.90
2012,03,12,10,19,33.60
2012,03,12,10,20,30.50
2012,03,12,10,21,26.80
2012,03,12,10,22,48.30
2012,03,12,10,23,35.20
2012,03,12,10,24,27.40
2012,03,12,10,25,45.50
2012,03,12,10,26,47.30
2012,03,12,10,27,38.90
2012,03,12,10,28,47.60
2012,03,12,10,29,41.60
2012,03,12,10,30,39.00
2012,03,12,10,31,35.20
2012,03,12,10,32,39.30
2012,03,12,10,33,45.20
2012,03,12,10,34,32.80
2012,03,12,10,35,36.40
2012,03,12,10,36,32.30
2012,03,12,10,37,46.80
2012,03,12,10,38,38.90
2012,03,12,10,39,29.20
2012,03,12,10,40,34.80
2012,03,12,10,41,28.50
2012,03,12,10,42,34.30
2012,03,12,10,43,38.20
2012,03,12,10,44,28.90
2012,03,12,10,45,23.80
2012,03,12,10,46,36.40
2012,03,12,10,47,33.00
2012,03,12,10,48,38.50
2012,03,12,10,49,29.80
2012,03,12,10,50,28.60
2012,03,12,10,51,27.60
2012,03,12,10,52,36.60
2012,03,12,10,53,31.40
2012,03,12,10,54,25.90
2012,03,12,10,55,35.70
2012,03,12,10,56,25.20
2012,03,12,10,57,17.20
2012,03,12,10,58,14.80
2012,03,12,10,59,30.00
2012,03,12,11,00,28.40
2012,03,12,11,01,21.90
2012,03,12,11,02,23.50
2012,03,12,11,03,27.10
2012,03,12,11,04,34.50
2012,03,12,11,05,33.60
2012,03,12,11,06,31.30
2012,03,12,11,07,25.50
2012,03,12,11,08,25.50
2012,03,12,11,09,24.60
2012,03,12,11,10,22.10
2012,03,12,11,11,22.90
2012,03,12,11,12,27.40
2012,03,12,11,13,35.20
2012,03,12,11,14,34.30
2012,03,12,11,15,31.00
2012,03,12,11,16,29.90
2012,03,12,11,17,24.40
2012,03,12,11,18,23.50
2012,03,12,11,19,25.70
2012,03,12,11,20,26.90
2012,03,12,11,21,19.70
2012,03,12,11,22,23.00
2012,03,12,11,23,33.40
2012,03,12,11,24,25.20
2012,03,12,11,25,23.90
2012,03,12,11,26,24.80
2012,03,12,11,27,30.50
2012,03,12,11,28,29.80
2012,03,12,11,29,23.50
2012,03,12,11,30,29.80
2012,03,12,11,31,27.40
2012,03,12,11,32,23.70
2012,03,12,11,33,28.60
2012,03,12,11,34,20.80
2012,03,12,11,35,25.80
2012,03,12,11,36,26.40
2012,03,12,11,37,21.70
2012,03,12,11,38,26.60
2012,03,12,11,39,26.90
2012,03,12,11,40,22.70
2012,03,12,11,41,28.90
2012,03,12,11,42,29.50
2012,03,12,11,43,19.50
2012,03,12,11,44,21.20
2012,03,12,11,45,27.80
2012,03,12,11,46,25.40
2012,03,12,11,47,18.00
2012,03,12,11,48,17.30
2012,03,12,11,49,32.40
2012,03,12,11,50,33.70
2012,03,12,11,51,27.70
2012,03,12,11,52,27.10
2012,03,12,11,53,24.60
2012,03,12,11,54,29.60
2012,03,12,11,55,23.40
2012,03,12,11,56,32.30
2012,03,12,11,57,25.70
2012,03,12,11,58,16.10
2012,03,12,11,59,13.50
2012,03,12,12,00,22.20
2012,03,12,12,01,18.60
2012,03,12,12,02,22.20
2012,03,12,12,03,26.30
2012,03,12,12,04,20.10
2012,03,12,12,05,17.60
2012,03,12,12,06,14.60
2012,03,12,12,07,25.60
2012,03,12,12,08,16.50
2012,03,12,12,09,15.60
2012,03,12,12,10,16.30
2012,03,12,12,11,15.30
2012,03,12,12,12,16.00
2012,03,12,12,13,17.80
2012,03,12,12,14,13.20
2012,03,12,12,15,16.50
2012,03,12,12,16,13.20
2012,03,12,12,17,23.60
2012,03,12,12,18,18.70
2012,03,12,12,19,11.80
2012,03,12,12,20,14.30
2012,03,12,12,21,19.90
2012,03,12,12,22,10.80
2012,03,12,12,23,16.50
2012,03,12,12,24,9.10
2012,03,12,12,25,8.50
2012,03,12,12,26,10.00
2012,03,12,12,27,14.40
2012,03,12,12,28,10.40
2012,03,12,12,29,10.20
2012,03,12,12,30,17.80
2012,03,12,12,31,18.40
2012,03,12,12,32,12.80
2012,03,12,12,33,11.90
2012,03,12,12,34,11.00
2012,03,12,12,35,5.20
2012,03,12,12,36,10.20
2012,03,12,12,37,5.30
2012,03,12,12,38,9.50
2012,03,12,12,39,4.40
2012,03,12,12,40,10.80
2012,03,12,12,41,11.60
2012,03,12,12,42,7.00
2012,03,12,12,43,0.10
2012,03,12,12,44,3.70
2012,03,12,12,45,7.50
2012,03,12,12,46,6.10
2012,03,12,12,47,9.40
2012,03,12,12,48,3.80
2012,03,12,12,49,0.10
2012,03,12,12,50,1.20
2012,03,12,12,51,2.30
2012,03,12,12,52,2.80
2012,03,12,12,53,2.10
2012,03,12,12,54,4.10
2012,03,12,12,55,0.60
2012,03,12,12,56,0.00
2012,03,12,12,57,0.00
2012,03,12,12,58,0.00
2012,03,12,12,59,0.00
2012,03,12,13,00,0.00
2012,03,12,13,01,0.00
2012,03,12,13,02,1.20
2012,03,12,13,03,0.90
2012,03,12,13,04,0.00
2012,03,12,13,05,0.00
2012,03,12,13,06,0.00
2012,03,12,13,07,2.60
2012,03,12,13,08,0.00
2012,03,12,13,09,0.00
2012,03,12,13,10,0.00
2012,03,12,13,11,0.00
2012,03,12,13,12,0.00
2012,03,12,13,13,0.00
2012,03,12,13,14,0.00
2012,03,12,13,15,0.00
2012,03,12,13,16,0.00
2012,03,12,13,17,0.00
2012,03,12,13,18,0.00
2012,03,12,13,19,0.00
2012,03,12,13,20,0.00
2012,03,12,13,21,0.00
2012,03,12,13,22,0.00
2012,03,12,13,23,0.00
2012,03,12,13,24,0.00
2012,03,12,13,25,0.00
2012,03,12,13,26,0.00
2012,03,12,13,27,0.00
2012,03,12,13,28,0.00
2012,03,12,13,29,0.00
2012,03,12,13,30,0.00
2012,03,12,13,31,0.00
2012,03,12,13,32,0.00
2012,03,12,13,33,0.00
2012,03,12,13,34,0.00
2012,03,12,13,35,0.00
2012,03,12,13,36,0.00
2012,03,12,13,37,0.00
2012,03,12,13,38,0.00
2012,03,12,13,39,0.00
2012,03,12,13,40,0.00
2012,03,12,13,41,0.00
2012,03,12,13,42,0.00
2012,03,12,13,43,3.10
2012,03,12,13,44,0.40
2012,03,12,13,45,4.40
2012,03,12,13,46,2.10
2012,03,12,13,47,0.00
2012,03,12,13,48,4.80
2012,03,12,13,49,5.10
2012,03,12,13,50,4.50
2012,03,12,13,51,2.40
2012,03,12,13,52,0.00
2012,03,12,13,53,0.00
2012,03,12,13,54,0.00
2012,03,12,13,55,0.00
2012,03,12,13,56,0.00
2012,03,12,13,57,0.00
2012,03,12,13,58,0.00
2012,03,12,13,59,0.00
2012,03,12,14,00,0.00
2012,03,12,14,01,0.00
2012,03,12,14,02,0.00
2012,03,12,14,03,0.00
2012,03,12,14,04,0.00
2012,03,12,14,05,0.00
2012,03,12,14,06,0.00
2012,03,12,14,07,0.00
2012,03,12,14,08,0.00
2012,03,12,14,09,0.00
2012,03,12,14,10,0.00
2012,03,12,14,11,0.00
2012,03,12,14,12,0.00
2012,03,12,14,13,0.00
2012,03,12,14,14,0.00
2012,03,12,14,15,0.00
2012,03,12,14,16,0.00
2012,03,12,14,17,0.00
2012,03,12,14,18,0.00
2012,03,12,14,19,0.00
2012,03,12,14,20,0.00
2012,03,12,14,21,0.00
2012,03,12,14,22,1.80
2012,03,12,14,23,2.70
2012,03,12,14,24,1.30
2012,03,12,14,25,1.90
2012,03,12,14,26,0.80
2012,03,12,14,27,6.40
2012,03,12,14,28,6.10
2012,03,12,14,29,1.20
2012,03,12,14,30,4.60
2012,03,12,14,31,5.20
2012,03,12,14,32,2.10
2012,03,12,14,33,2.60
2012,03,12,14,34,5.10
2012,03,12,14,35,6.60
2012,03,12,14,36,1.70
2012,03,12,14,37,0.70
2012,03,12,14,38,0.10
2012,03,12,14,39,0.00
2012,03,12,14,40,0.00
2012,03,12,14,41,0.00
2012,03,12,14,42,4.30
2012,03,12,14,43,6.10
2012,03,12,14,44,0.30
2012,03,12,14,45,0.00
2012,03,12,14,46,0.00
2012,03,12,14,47,0.00
2012,03,12,14,48,1.70
2012,03,12,14,49,2.30
2012,03,12,14,50,3.50
2012,03,12,14,51,2.00
2012,03,12,14,52,0.60
2012,03,12,14,53,3.70
2012,03,12,14,54,3.80
2012,03,12,14,55,3.20
2012,03,12,14,56,6.20
2012,03,12,14,57,1.90
2012,03,12,14,58,1.50
2012,03,12,14,59,0.00
2012,03,12,15,00,0.00
2012,03,12,15,01,0.00
2012,03,12,15,02,0.00
2012,03,12,15,03,1.80
2012,03,12,15,04,4.80
2012,03,12,15,05,5.00
2012,03,12,15,06,0.50
2012,03,12,15,07,0.00
2012,03,12,15,08,0.00
2012,03,12,15,09,0.00
2012,03,12,15,10,0.00
2012,03,12,15,11,0.00
2012,03,12,15,12,0.00
2012,03,12,15,13,0.00
2012,03,12,15,14,0.00
2012,03,12,15,15,0.00
2012,03,12,15,16,0.00
2012,03,12,15,17,0.00
2012,03,12,15,18,0.00
2012,03,12,15,19,0.00
2012,03,12,15,20,0.00
2012,03,12,15,21,0.00
2012,03,12,15,22,0.00
2012,03,12,15,23,0.00
2012,03,12,15,24,0.00
2012,03,12,15,25,0.00
2012,03,12,15,26,0.00
2012,03,12,15,27,0.00
2012,03,12,15,28,0.00
2012,03,12,15,29,0.00
2012,03,12,15,30,0.00
2012,03,12,15,31,0.00
2012,03,12,15,32,0.00
2012,03,12,15,33,0.00
2012,03,12,15,34,0.00
2012,03,12,15,35,0.00
2012,03,12,15,36,0.00
2012,03,12,15,37,0.00
2012,03,12,15,38,0.00
2012,03,12,15,39,0.00
2012,03,12,15,40,0.00
2012,03,12,15,41,0.00
2012,03,12,15,42,0.00
2012,03,12,15,43,0.00
2012,03,12,15,44,0.00
2012,03,12,15,45,0.00
2012,03,12,15,46,0.00
2012,03,12,15,47,0.00
2012,03,12,15,48,0.00
2012,03,12,15,49,0.00
2012,03,12,15,50,0.00
2012,03,12,15,51,0.00
2012,03,12,15,52,0.00
2012,03,12,15,53,0.00
2012,03,12,15,54,1.40
2012,03,12,15,55,0.00
2012,03,12,15,56,0.00
2012,03,12,15,57,0.00
2012,03,12,15,58,0.00
2012,03,12,15,59,0.00
2012,03,12,16,00,0.00
2012,03,12,16,01,0.00
2012,03,12,16,02,0.00
2012,03,12,16,03,0.00
2012,03,12,16,04,0.00
2012,03,12,16,05,0.00
2012,03,12,16,06,0.00
2012,03,12,16,07,0.00
2012,03,12,16,08,0.00
2012,03,12,16,09,0.00
2012,03,12,16,10,0.00
2012,03,12,16,11,0.00
2012,03,12,16,12,0.00
2012,03,12,16,13,0.00
2012,03,12,16,14,0.00
2012,03,12,16,15,0.00
2012,03,12,16,16,0.00
2012,03,12,16,17,0.00
2012,03,12,16,18,0.00
2012,03,12,16,19,0.00
2012,03,12,16,20,0.00
2012,03,12,16,21,0.00
2012,03,12,16,22,0.00
2012,03,12,16,23,0.00
2012,03,12,16,24,0.00
2012,03,12,16,25,0.00
2012,03,12,16,26,0.00
2012,03,12,16,27,0.00
2012,03,12,16,28,0.00
2012,03,12,16,29,0.00
2012,03,12,16,30,0.00
2012,03,12,16,31,0.00
2012,03,12,16,32,0.00
2012,03,12,16,33,0.00
2012,03,12,16,34,0.00
2012,03,12,16,35,0.00
2012,03,12,16,36,0.00
2012,03,12,16,37,0.00
2012,03,12,16,38,0.00
2012,03,12,16,39,0.00
2012,03,12,16,40,0.00
2012,03,12,16,41,0.00
2012,03,12,16,42,0.00
2012,03,12,16,43,0.00
2012,03,12,16,44,0.00
2012,03,12,16,45,0.00
2012,03,12,16,46,0.00
2012,03,12,16,47,0.00
2012,03,12,16,48,0.00
2012,03,12,16,49,0.00
2012,03,12,16,50,0.00
2012,03,12,16,51,0.00
2012,03,12,16,52,0.00
2012,03,12,16,53,0.00
2012,03,12,16,54,0.10
2012,03,12,16,55,0.00
2012,03,12,16,56,2.80
2012,03,12,16,57,4.30
2012,03,12,16,58,1.70
2012,03,12,16,59,1.30
2012,03,12,17,00,1.20
2012,03,12,17,01,3.40
2012,03,12,17,02,3.10
2012,03,12,17,03,0.00
2012,03,12,17,04,0.00
2012,03,12,17,05,1.50
2012,03,12,17,06,2.20
2012,03,12,17,07,0.30
2012,03,12,17,08,2.60
2012,03,12,17,09,7.50
2012,03,12,17,10,4.90
2012,03,12,17,11,0.60
2012,03,12,17,12,9.00
2012,03,12,17,13,6.40
2012,03,12,17,14,0.60
2012,03,12,17,15,3.00
2012,03,12,17,16,2.90
2012,03,12,17,17,1.70
2012,03,12,17,18,1.40
2012,03,12,17,19,5.40
2012,03,12,17,20,1.70
2012,03,12,17,21,0.50
2012,03,12,17,22,0.00
2012,03,12,17,23,0.00
2012,03,12,17,24,0.00
2012,03,12,17,25,0.00
2012,03,12,17,26,0.00
2012,03,12,17,27,0.00
2012,03,12,17,28,2.10
2012,03,12,17,29,0.40
2012,03,12,17,30,0.00
2012,03,12,17,31,0.00
2012,03,12,17,32,0.50